Tracking 20040 objects as of 18-Nov-2019
Live streaming from Space Station
objects crossing your sky now

DELTA 1 R/B(1)

Track DELTA 1 R/B(1) now!
10-day predictions


NORAD ID: 15392
Int'l Code: 1984-115B
Perigee: 677.1 km
Apogee: 2,303.3 km
Inclination: 21.5 °
Period: 115.6 minutes
Semi major axis: 7861 km
RCS: 10.0127 m2 (large)
Launch date: November 14, 1984
Source: United States (US)
Launch site: AIR FORCE EASTERN TEST RANGE (AFETR)

Note: This is a ROCKET BODY
aabbcc
Your satellite tracking list
Your tracking list is empty




NASA's NSSDC Master Catalog

Two Line Element Set (TLE):
1 15392U 84115B   19321.89122997 +.00000207 +00000-0 +59027-4 0  9998
2 15392 021.4899 232.9094 1034293 048.0481 320.3566 12.45574809576492
Source of the keplerian elements: AFSPC